This demonstration page uses our WeatherBlox Daily Observations layout. Learn more.

39.08367, -84.50855

Hourly Observations for July 31, 2019

Temp ( °F °C ) Dew Point ( °F °C ) Humidity (%) Winds ( mph kmh ) Pressure ( in mb ) Visibility ( mi km ) Precip ( " mm )
12:53 am 00:53 Mostly Cloudy 68 20 67 19.4 96 96 Calm 30.03 1017 9 14.484096 0 0
1:53 am 01:53 Partly Cloudy 67 19.4 66 18.9 97 97 Calm 30.03 1017 9 14.484096 0 0
2:53 am 02:53 Mostly Cloudy 66 18.9 66 18.9 100 100 Calm 30 1016 9 14.484096 0 0
3:53 am 03:53 Clear 66 18.9 66 18.9 100 100 Calm 30 1016 8 12.874752 0 0
4:02 am 04:02 Mostly Clear with Mist and Fog 65 18.3 65 18.3 100 100 E 3 6 30 1016 1.5 2.414016 0 0
4:05 am 04:05 Mostly Cloudy with Mist and Fog 65 18.3 65 18.3 100 100 Calm 30 1016 0.75 1.207008 0 0
4:18 am 04:18 Clear with Mist and Fog 65 18.3 65 18.3 100 100 NE 3 6 30 1016 1 1.609344 0 0
4:22 am 04:22 Clear with Mist and Fog 65 18.3 65 18.3 100 100 ENE 3 6 30 1016 3 4.828032 0 0
4:25 am 04:25 Mostly Clear with Mist and Fog 65 18.3 65 18.3 100 100 E 3 6 30 1016 2.5 4.02336 0 0
4:36 am 04:36 Mostly Cloudy with Mist and Fog 65 18.3 65 18.3 100 100 Calm 30 1016 1 1.609344 0 0
4:47 am 04:47 Mostly Clear with Mist and Fog 66 19 64 18 94 94 Calm 30 1016 2.5 4.02336 0 0
4:53 am 04:53 Mostly Clear with Mist and Fog 66 18.9 65 18.3 96 96 Calm 30.03 1017 5 8.04672 0 0
5:25 am 05:25 Partly Cloudy with Mist and Fog 64 17.8 64 17.8 100 100 Calm 30.03 1017 1.5 2.414016 0 0
5:28 am 05:28 Mostly Cloudy with Mist and Fog 64 17.8 64 17.8 100 100 Calm 30.03 1017 0.75 1.207008 0 0
5:51 am 05:51 Mostly Cloudy with Fog 64 18 64 18 100 100 Calm 30.03 1017 0.25 0.402336 0 0
5:53 am 05:53 Mostly Cloudy with Fog 65 18.3 65 18.3 100 100 Calm 30.03 1017 0.25 0.402336 0 0
6:02 am 06:02 Mostly Cloudy with Fog 64 17.8 64 17.8 100 100 Calm 30.03 1017 0.5 0.804672 0 0
6:12 am 06:12 Partly Cloudy with Mist and Fog 64 17.8 64 17.8 100 100 Calm 30.03 1017 1.75 2.816352 0 0
6:22 am 06:22 Mostly Cloudy with Mist and Fog 63 17.2 63 17.2 100 100 NE 3 6 30.03 1017 0.75 1.207008 0 0
6:32 am 06:32 Mostly Cloudy with Mist and Fog 64 17.8 64 17.8 100 100 Calm 30.03 1017 2 3.218688 0 0
6:40 am 06:40 Partly Cloudy with Mist and Fog 64 17.8 64 17.8 100 100 Calm 30.03 1017 6 9.656064 0 0
6:49 am 06:49 Mostly Cloudy with Fog 63 17 63 17 100 100 Calm 30.06 1018 2.5 4.02336 0 0
6:53 am 06:53 Mostly Cloudy with Patchy Fog 63 17.2 63 17.2 100 100 Calm 30.06 1018 2.5 4.02336 0 0
7:19 am 07:19 Mostly Cloudy with Patchy Fog 65 18.3 65 18.3 100 100 Calm 30.06 1018 0.5 0.804672 0 0
7:47 am 07:47 Cloudy with Patchy Fog 66 19 66 19 100 100 Calm 30.06 1018 1 1.609344 0 0
7:53 am 07:53 Cloudy with Patchy Fog 67 19.4 66 18.9 97 97 NE 3 6 30.06 1018 1 1.609344 0 0
8:06 am 08:06 Cloudy with Patchy Fog 67 19.4 67 19.4 100 100 Calm 30.06 1018 0.5 0.804672 0 0
8:13 am 08:13 Mostly Cloudy with Fog 67 19.4 67 19.4 100 100 Calm 30.06 1018 0.25 0.402336 0 0
8:30 am 08:30 Cloudy with Mist and Fog 68 20 68 20 100 100 Calm 30.06 1018 0.75 1.207008 0 0
8:36 am 08:36 Partly Cloudy with Mist and Fog 68 20 68 20 100 100 Calm 30.06 1018 2 3.218688 0 0
8:44 am 08:44 Partly Cloudy with Mist and Fog 69 20.6 68 20 96 96 Calm 30.06 1018 4 6.437376 0 0
8:53 am 08:53 Partly Cloudy with Mist and Fog 69 20.6 68 20 96 96 ENE 3 6 30.09 1019 6 9.656064 0 0
9:53 am 09:53 Mostly Sunny 74 23.3 67 19.4 79 79 NE 7 11 30.06 1018 10 16.09344 0 0
10:53 am 10:53 Mostly Sunny 76 24.4 67 19.4 74 74 Calm 30.09 1019 10 16.09344 0 0
11:53 am 11:53 Mostly Sunny 80 26.7 68 20 67 67 Calm 30.09 1019 10 16.09344 0 0
12:53 pm 12:53 Mostly Sunny 81 27.2 68 20 65 65 VRB 3 6 30.06 1018 10 16.09344 0 0
1:53 pm 13:53 Mostly Cloudy 84 28.9 69 20.6 61 61 VRB 5 7 30.06 1018 10 16.09344 0 0
2:53 pm 14:53 Mostly Sunny 85 29.4 67 19.4 55 55 Calm 30.06 1018 10 16.09344 0 0
3:53 pm 15:53 Partly Cloudy 87 30.6 67 19.4 51 51 W 8 13 30.03 1017 10 16.09344 0 0
4:53 pm 16:53 Partly Cloudy 86 30 67 19.4 53 53 WNW 7 11 30.03 1017 10 16.09344 0 0
5:53 pm 17:53 Partly Cloudy 84 28.9 66 18.9 55 55 NW 7 11 30.03 1017 10 16.09344 0 0
6:53 pm 18:53 Mostly Sunny 83 28.3 65 18.3 55 55 NW 7 11 30.03 1017 10 16.09344 0 0
7:53 pm 19:53 Partly Cloudy 82 27.8 65 18.3 56 56 NNW 9 15 30.03 1017 10 16.09344 0 0
8:53 pm 20:53 Mostly Clear 79 26.1 64 17.8 60 60 N 7 11 30.03 1017 10 16.09344 0 0
9:53 pm 21:53 Mostly Clear 76 24.4 64 17.8 67 67 N 7 11 30.03 1017 10 16.09344 0 0
10:53 pm 22:53 Clear 71 21.7 66 18.9 84 84 Calm 30.06 1018 10 16.09344 0 0
11:53 pm 23:53 Clear 69 20.6 66 18.9 90 90 Calm 30.06 1018 10 16.09344 0 0

Powered by AerisWeather